[[{"header":{"parameterUnit":"m.s-1","parameterCategory":1,"la1":30.2991,"la2":30.254,"lo1":-89.0895,"lo2":-89.0444,"dx":0.0017,"dy":0.0017,"nx":28,"ny":28,"refTime":"2023-01-14T03:00:00:Z","depth":0,"parameterNumber":2,"parameterNumberName":"U-component_of_WINDS"},"data":[0,0,0,0,0,0,0,0,0,0,0,0,0,0,0,0,0,0,0,0,0,0,0,0,0,0,0,0,0,0,0,0,0,0,0,0,0,0,0,0,0,0,0,0,0,0,0,0,0,0,0,0,0,0,0,0,0,0,-2.6667,-2.6667,0,-2.6657,-2.6657,-2.6657,-2.6635,-2.6634,-2.6634,-2.6633,-2.6623,-2.6623,-2.6624,0,0,0,0,0,0,0,0,0,0,0,0,0,-2.6669,-2.6669,-2.6667,-2.6667,-2.6667,-2.6657,-2.6657,-2.6657,-2.6635,-2.6634,-2.6634,-2.6633,-2.6623,-2.6623,-2.6624,0,0,0,0,0,0,0,0,0,0,0,0,0,-2.6664,-2.6669,-2.6667,-2.6655,-2.6654,-2.6657,-2.6657,-2.6657,-2.6635,-2.6634,-2.6634,-2.6633,-2.6623,-2.6623,-2.6624,-2.6638,0,0,-2.6624,-2.6624,0,0,0,0,0,0,0,0,-2.6665,-2.6664,-2.6657,-2.6656,-2.6654,-2.6646,-2.6654,-2.6651,-2.6635,-2.6642,-2.6633,-2.6633,-2.6632,-2.6631,-2.6631,-2.6638,-2.6637,-2.6624,-2.6624,-2.6625,-2.6625,0,0,0,0,0,0,0,-2.6665,-2.6665,-2.6663,-2.6657,-2.6655,-2.665,-2.6649,-2.6653,-2.6641,-2.6641,-2.664,-2.6639,-2.6631,-2.663,-2.663,-2.6637,-2.6624,-2.6625,-2.6625,-2.6625,-2.6656,-2.6656,0,0,0,0,0,0,-2.6667,-2.6665,-2.6664,-2.6663,-2.6658,-2.6651,-2.6649,-2.665,-2.6641,-2.6639,-2.6639,-2.6638,-2.663,-2.663,-2.663,-2.6645,-2.6625,-2.6625,-2.6625,-2.6655,-2.6656,-2.6656,0,0,0,0,0,0,-2.6667,-2.6667,-2.6664,-2.6664,-2.6663,-2.6651,-2.6652,-2.665,-2.6649,-2.6639,-2.6637,-2.6641,-2.663,-2.6629,-2.6636,-2.6645,-2.6625,-2.6625,-2.6654,-2.6655,-2.6656,-2.6677,0,0,0,0,0,0,-2.6667,-2.6667,-2.6672,-2.6664,-2.6663,-2.667,-2.6653,-2.665,-2.665,-2.6648,-2.664,-2.6638,-2.6629,-2.6636,-2.6636,-2.6645,-2.6625,-2.6653,-2.6654,-2.6656,-2.6676,-2.6679,-2.6682,0,0,0,0,0,-2.6667,-2.6679,-2.6673,-2.6673,-2.6669,-2.6671,-2.667,-2.666,-2.6651,-2.6656,-2.6649,-2.6639,-2.6644,-2.6637,-2.6637,-2.6646,-2.6653,-2.6654,-2.6656,-2.6674,-2.6678,-2.6682,0,0,0,0,0,0,-2.6689,-2.6678,-2.6671,-2.668,-2.6677,-2.6667,-2.6673,-2.6664,-2.6663,-2.6661,-2.6648,-2.6647,-2.6655,-2.6651,-2.6643,-2.6659,-2.6647,-2.6648,-2.6661,-2.6664,-2.6667,-2.6667,-2.6625,0,0,0,0,0,-2.6695,-2.6697,-2.6687,-2.6697,-2.6695,-2.6685,-2.6685,-2.6677,-2.6673,-2.6672,-2.6666,-2.6662,-2.6663,-2.6664,-2.6664,-2.6676,-2.6673,-2.6682,-2.6685,-2.6687,-2.6688,-2.6693,-2.6697,-2.6661,-2.6661,-2.6661,0,0,-2.6707,-2.6701,-2.6704,-2.6701,-2.6697,-2.67,-2.6684,-2.6687,-2.6689,-2.6672,-2.6677,-2.6673,-2.6669,-2.6678,-2.6681,-2.6675,-2.6698,-2.6689,-2.6691,-2.6691,-2.6695,-2.6699,-2.6701,-2.6663,-2.6662,-2.6662,0,0,-2.673,-2.6727,-2.6733,-2.673,-2.6725,-2.6718,-2.672,-2.6712,-2.6708,-2.6713,-2.6701,-2.6703,-2.6705,-2.6702,-2.6701,-2.6723,-2.6713,-2.6724,-2.6739,-2.6744,-2.6746,-2.6749,-2.6756,-2.6758,-2.6726,-2.6726,-2.6726,0,-2.6746,-2.6749,-2.6738,-2.6742,-2.6741,-2.6726,-2.6733,-2.673,-2.6726,-2.6725,-2.6718,-2.672,-2.6716,-2.6724,-2.6729,-2.673,-2.6731,-2.6724,-2.6747,-2.6749,-2.6751,-2.6758,-2.676,-2.6727,-2.6727,-2.6727,-2.6727,0,-2.6768,-2.677,-2.6776,-2.6771,-2.6771,-2.6777,-2.6767,-2.6768,-2.6761,-2.6755,-2.676,-2.6755,-2.6754,-2.6755,-2.6748,-2.6762,-2.6758,-2.6749,-2.6736,-2.6756,-2.6762,-2.6764,-2.6729,-2.6728,-2.6728,-2.6728,0,0,-2.6802,-2.6792,-2.6794,-2.6792,-2.6785,-2.6787,-2.6792,-2.679,-2.6791,-2.6789,-2.6792,-2.6795,-2.6787,-2.6785,-2.6778,-2.6783,-2.6799,-2.6773,-2.6773,-2.6777,-2.6813,-2.6818,-2.6821,-2.6794,-2.6794,-2.6794,-2.6813,0,-2.6822,-2.6829,-2.682,-2.6829,-2.6831,-2.6818,-2.6822,-2.6818,-2.6813,-2.6814,-2.6808,-2.681,-2.68,-2.6798,-2.6803,-2.6796,-2.6806,-2.6795,-2.6796,-2.6796,-2.6795,-2.6824,-2.683,-2.6847,-2.6815,-2.6815,-2.6816,0,-2.6846,-2.6844,-2.6854,-2.6846,-2.6847,-2.685,-2.6848,-2.685,-2.6846,-2.6841,-2.684,-2.6831,-2.6836,-2.6825,-2.683,-2.6823,-2.6823,-2.682,-2.682,-2.6818,-2.6806,-2.6822,-2.6853,-2.6855,-2.6819,-2.6819,-2.6819,0,-2.6868,-2.6869,-2.6874,-2.6873,-2.6865,-2.6868,-2.6864,-2.686,-2.686,-2.6858,-2.6858,-2.6857,-2.6856,-2.6856,-2.6847,-2.684,-2.6853,-2.6842,-2.6849,-2.685,-2.6851,-2.6851,-2.6881,-2.6854,-2.6854,-2.6854,-2.6854,0,-2.6891,-2.6896,-2.6884,-2.6887,-2.6893,-2.6883,-2.6889,-2.6885,-2.6881,-2.6883,-2.6872,-2.6875,-2.6864,-2.6865,-2.6859,-2.6863,-2.6864,-2.686,-2.6858,-2.686,-2.686,-2.6858,-2.6856,-2.6855,-2.6855,-2.6855,-2.6854,0,-2.6916,-2.6908,-2.6912,-2.6905,-2.6903,-2.6908,-2.6901,-2.6903,-2.6898,-2.6901,-2.6901,-2.6892,-2.6893,-2.6885,-2.6884,-2.688,-2.6887,-2.6884,-2.6888,-2.6886,-2.6894,-2.6893,-2.6923,-2.6926,-2.6898,-2.6899,-2.6899,0,-2.6929,-2.6933,-2.6926,-2.6926,-2.6924,-2.6925,-2.6924,-2.6915,-2.6915,-2.6911,-2.6914,-2.6914,-2.6913,-2.6915,-2.6909,-2.6908,-2.6904,-2.6914,-2.6903,-2.6905,-2.6902,-2.6901,-2.6901,-2.6916,-2.6916,-2.6916,-2.6917,0,-2.6954,-2.695,-2.6949,-2.6948,-2.6948,-2.6946,-2.6944,-2.6945,-2.6935,-2.6935,-2.6936,-2.6935,-2.6935,-2.6934,-2.6933,-2.693,-2.6921,-2.6921,-2.6922,-2.6923,-2.6925,-2.6923,-2.6892,-2.6919,-2.6919,-2.6919,-2.6919,-2.6919,-2.6972,-2.6975,-2.697,-2.697,-2.6968,-2.6966,-2.6968,-2.6962,-2.6963,-2.6961,-2.6956,-2.6957,-2.6953,-2.695,-2.6948,-2.6949,-2.6944,-2.6946,-2.6947,-2.6947,-2.6948,-2.6926,-2.6949,-2.6949,-2.6949,-2.6949,-2.6949,0,-2.6995,-2.6992,-2.6992,-2.6989,-2.6989,-2.6982,-2.6979,-2.6979,-2.698,-2.6978,-2.6977,-2.6978,-2.6978,-2.6972,-2.6971,-2.6973,-2.6969,-2.6973,-2.6971,-2.6971,-2.6953,-2.6951,-2.6976,-2.6976,-2.6976,-2.6976,-2.6976,-2.6976,-2.7007,-2.7011,-2.7006,-2.7009,-2.7005,-2.7006,-2.7005,-2.7003,-2.7001,-2.7002,-2.7001,-2.6998,-2.6994,-2.6993,-2.6992,-2.699,-2.699,-2.6995,-2.6992,-2.6975,-2.6972,-2.6969,-2.6967,-2.6995,-2.6995,-2.7009,-2.7009,-2.7009]},{"header":{"parameterUnit":"m.s-1","parameterCategory":1,"la1":30.2991,"la2":30.254,"lo1":-89.0895,"lo2":-89.0444,"dx":0.0017,"dy":0.0017,"nx":28,"ny":28,"refTime":"2023-01-14T03:00:00:Z","depth":0,"parameterNumber":3,"parameterNumberName":"V-component_of_WINDS"},"data":[0,0,0,0,0,0,0,0,0,0,0,0,0,0,0,0,0,0,0,0,0,0,0,0,0,0,0,0,0,0,0,0,0,0,0,0,0,0,0,0,0,0,0,0,0,0,0,0,0,0,0,0,0,0,0,0,0,0,2.6675,2.6676,0,2.68,2.6801,2.6803,2.6835,2.6834,2.6833,2.6833,2.6955,2.6959,2.6963,0,0,0,0,0,0,0,0,0,0,0,0,0,2.6459,2.6463,2.6675,2.6676,2.6678,2.68,2.6801,2.6803,2.6835,2.6834,2.6833,2.6832,2.6954,2.6959,2.6964,0,0,0,0,0,0,0,0,0,0,0,0,0,2.6565,2.6464,2.6674,2.6708,2.6713,2.6799,2.6802,2.6804,2.6835,2.6834,2.6833,2.6832,2.6952,2.6958,2.6964,2.7024,0,0,2.6982,2.6985,0,0,0,0,0,0,0,0,2.6559,2.6573,2.6702,2.6706,2.6711,2.6801,2.6771,2.6877,2.6835,2.6789,2.6833,2.6831,2.6904,2.6914,2.694,2.703,2.7035,2.6983,2.6987,2.6989,2.6991,0,0,0,0,0,0,0,2.6552,2.6568,2.6724,2.6704,2.6709,2.6716,2.673,2.6791,2.6851,2.6793,2.6795,2.681,2.6907,2.6934,2.6943,2.7037,2.6983,2.6988,2.6992,2.6994,2.7184,2.7185,0,0,0,0,0,0,2.6539,2.6561,2.672,2.6728,2.6631,2.6721,2.6737,2.6773,2.6851,2.6862,2.6811,2.6811,2.6925,2.6936,2.6948,2.7024,2.6989,2.6995,2.6998,2.7182,2.7184,2.7186,0,0,0,0,0,0,2.6534,2.6553,2.6715,2.6646,2.6667,2.6726,2.6767,2.6776,2.6804,2.6865,2.6875,2.6828,2.6924,2.6939,2.7006,2.7029,2.6997,2.7003,2.7181,2.7183,2.7185,2.7177,0,0,0,0,0,0,2.6528,2.6551,2.6575,2.6646,2.667,2.6772,2.6768,2.6779,2.6815,2.6816,2.6884,2.6894,2.6924,2.6997,2.7012,2.7037,2.7008,2.7179,2.7182,2.7184,2.7176,2.7179,2.7182,0,0,0,0,0,2.652,2.6567,2.6576,2.6595,2.6702,2.6773,2.6787,2.6823,2.6816,2.6841,2.688,2.6891,2.7024,2.7003,2.702,2.7047,2.7177,2.7181,2.7184,2.7174,2.7178,2.7181,0,0,0,0,0,0,2.6495,2.6576,2.6588,2.6659,2.6709,2.6779,2.6811,2.6826,2.6878,2.6877,2.6918,2.6933,2.6997,2.7029,2.7004,2.711,2.7101,2.7107,2.7087,2.7092,2.7094,2.7086,2.7013,0,0,0,0,0,2.6498,2.6551,2.6618,2.6674,2.6699,2.6751,2.6783,2.6807,2.686,2.688,2.6924,2.6974,2.7027,2.7061,2.7113,2.718,2.7196,2.7207,2.721,2.7213,2.7218,2.7257,2.7263,2.7196,2.7196,2.7196,0,0,2.6504,2.6555,2.6585,2.6671,2.6712,2.6765,2.6768,2.6823,2.6862,2.6888,2.6955,2.6989,2.7047,2.7114,2.7146,2.7143,2.724,2.7217,2.7218,2.7222,2.7261,2.7267,2.7273,2.7198,2.7198,2.7198,0,0,2.6542,2.6586,2.6639,2.6681,2.6745,2.6779,2.6792,2.686,2.6884,2.6952,2.6973,2.7019,2.7109,2.715,2.7183,2.7238,2.7251,2.7254,2.7269,2.7307,2.7312,2.7317,2.7338,2.7345,2.7259,2.7259,2.7259,0,2.6541,2.6623,2.6663,2.6718,2.6755,2.6783,2.6836,2.6875,2.6952,2.6976,2.6972,2.7087,2.7127,2.7206,2.722,2.7245,2.726,2.7246,2.7309,2.7314,2.7319,2.7339,2.7347,2.7259,2.7259,2.7259,2.7259,0,2.6619,2.6676,2.671,2.6787,2.6827,2.6881,2.6928,2.6964,2.6984,2.7018,2.7087,2.7137,2.7201,2.7221,2.724,2.7302,2.7299,2.7301,2.7292,2.7325,2.7345,2.7353,2.7259,2.7259,2.7259,2.7259,0,0,2.6645,2.6744,2.6756,2.6792,2.6865,2.6909,2.6963,2.7028,2.7058,2.711,2.7157,2.7234,2.7237,2.7274,2.7298,2.7331,2.7374,2.733,2.7332,2.7337,2.7446,2.7444,2.7453,2.7382,2.7384,2.7385,2.7441,0,2.6693,2.6795,2.6832,2.6915,2.6968,2.6995,2.7043,2.7093,2.7126,2.7175,2.7211,2.7266,2.7265,2.7288,2.7322,2.7361,2.7396,2.7358,2.7426,2.7428,2.7411,2.7463,2.7461,2.7512,2.7449,2.7451,2.7452,0,2.6763,2.6819,2.6907,2.6976,2.6999,2.7042,2.7105,2.7151,2.7207,2.723,2.7272,2.7295,2.7352,2.734,2.7419,2.7393,2.7423,2.7446,2.7449,2.7457,2.7442,2.7473,2.7529,2.7537,2.7464,2.7463,2.7462,0,2.6775,2.6871,2.6937,2.6967,2.7048,2.7077,2.7112,2.7168,2.7204,2.7258,2.7283,2.7341,2.7374,2.7419,2.7456,2.7444,2.7533,2.7523,2.7553,2.7552,2.757,2.7569,2.7632,2.7588,2.7588,2.7588,2.7588,0,2.6825,2.6878,2.6944,2.6984,2.7045,2.7087,2.7145,2.7181,2.7231,2.7278,2.7305,2.7348,2.7395,2.7444,2.7474,2.7536,2.755,2.7569,2.7577,2.7568,2.7565,2.7588,2.7586,2.759,2.759,2.7589,2.7589,0,2.6849,2.6894,2.6968,2.704,2.7059,2.71,2.7161,2.7201,2.7236,2.7296,2.7312,2.7367,2.7426,2.7468,2.7544,2.7564,2.7631,2.7638,2.7613,2.7617,2.7644,2.7641,2.7725,2.7739,2.7685,2.7685,2.7685,0,2.6878,2.692,2.6997,2.7032,2.7068,2.7122,2.7161,2.7204,2.7242,2.7311,2.7342,2.7404,2.7456,2.755,2.7596,2.7654,2.7663,2.7688,2.7671,2.7661,2.7664,2.7662,2.7666,2.769,2.7691,2.7691,2.7691,0,2.6927,2.6948,2.7003,2.7067,2.7112,2.7164,2.7215,2.7242,2.7294,2.7335,2.7398,2.7438,2.7517,2.7578,2.7641,2.7676,2.7692,2.7696,2.7707,2.7698,2.7682,2.7692,2.7621,2.7694,2.7694,2.7694,2.7694,2.7693,2.6956,2.6995,2.7056,2.7116,2.716,2.7208,2.725,2.7291,2.7345,2.7414,2.7435,2.75,2.7556,2.7643,2.7678,2.7729,2.7727,2.7741,2.7745,2.7749,2.7749,2.7674,2.774,2.774,2.774,2.774,2.774,0,2.7007,2.7048,2.7103,2.7176,2.7223,2.7237,2.7295,2.7333,2.7391,2.7443,2.7494,2.7566,2.7626,2.7676,2.7738,2.7769,2.7778,2.7783,2.7782,2.779,2.7746,2.7732,2.7775,2.7775,2.7775,2.7775,2.7775,2.7775,2.7039,2.7107,2.7135,2.7224,2.7264,2.733,2.7362,2.7406,2.7448,2.7528,2.7579,2.7612,2.7664,2.7729,2.7784,2.7798,2.7819,2.7823,2.7838,2.7797,2.7793,2.7789,2.7776,2.7828,2.7828,2.7878,2.7879,2.7879]}]]